This demonstration page uses our WeatherBlox Daily Observations layout. Learn more.

Left ArrowRight Arrow

39.08367, -84.50855

Hourly Observations for August 8, 2017

Temp ( °F °C ) Dew Point ( °F °C ) Humidity (%) Winds ( mph kmh ) Pressure ( in mb ) Visibility ( mi km ) Precip ( " mm )
12:34 am 00:34 Clear with Mist and Fog 63 17.2 63 17.2 100 100 N N/A 30.03 1017 2 3 N/A
12:53 am 00:53 Clear with Fog 63 17.2 63 17.2 100 100 N N/A 30.05 1018 1 1 N/A
1:08 am 01:08 Mostly Cloudy with Fog 62 16.7 62 16.7 100 100 N N/A 30.03 1017 0 0 N/A
1:30 am 01:30 Mostly Cloudy with Mist and Fog 62 16.7 62 16.7 100 100 N N/A 30.03 1017 1 2 N/A
1:32 am 01:32 Partly Cloudy with Mist and Fog 62 16.7 62 16.7 100 100 N N/A 30.03 1017 3 4 N/A
1:42 am 01:42 Mostly Cloudy with Mist and Fog 61 16.1 61 16.1 100 100 N N/A 30.03 1017 1 2 N/A
1:47 am 01:47 Mostly Cloudy with Fog 63 17 63 17 100 100 N N/A 30.03 1017 0 0 N/A
1:53 am 01:53 Mostly Cloudy with Fog 63 17.2 63 17.2 100 100 N N/A 30.05 1018 0 0 N/A
2:00 am 02:00 Mostly Cloudy with Fog 62 16.7 62 16.7 100 100 N N/A 30.03 1017 1 1 N/A
2:11 am 02:11 Mostly Cloudy with Fog 60 15.6 60 15.6 100 100 N N/A 30.03 1017 0 0 N/A
2:53 am 02:53 Mostly Cloudy with Fog 60 15.6 60 15.6 100 100 N N/A 30.06 1018 0 0 N/A
3:43 am 03:43 Mostly Cloudy with Fog 60 15.6 60 15.6 100 100 N N/A 30.03 1017 1 1 N/A
3:53 am 03:53 Mostly Cloudy with Fog 60 15.6 60 15.6 100 100 N N/A 30.06 1018 1 1 N/A
4:12 am 04:12 Mostly Cloudy with Mist and Fog 60 15.6 60 15.6 100 100 N N/A 30.06 1018 2 3 N/A
4:16 am 04:16 Partly Cloudy with Mist and Fog 59 15 59 15 100 100 N N/A 30.09 1019 4 6 N/A
4:24 am 04:24 Partly Cloudy with Mist and Fog 58 14.4 58 14.4 100 100 N N/A 30.09 1019 3 4 N/A
4:27 am 04:27 Mostly Cloudy with Mist and Fog 58 14.4 58 14.4 100 100 N N/A 30.09 1019 1 2 N/A
4:33 am 04:33 Mostly Cloudy with Fog 58 14.4 58 14.4 100 100 N N/A 30.09 1019 1 1 N/A
4:44 am 04:44 Mostly Clear with Mist and Fog 59 15 59 15 100 100 N N/A 30.09 1019 1 2 N/A
4:53 am 04:53 Mostly Cloudy with Mist and Fog 59 15 59 15 100 100 N N/A 30.07 1018 1 1 N/A
5:27 am 05:27 Mostly Cloudy with Mist and Fog 59 15 59 15 100 100 N N/A 30.09 1019 1 2 N/A
5:33 am 05:33 Mostly Cloudy with Mist and Fog 57 13.9 57 13.9 100 100 N N/A 30.09 1019 1 1 N/A
5:49 am 05:49 Mostly Cloudy with Mist and Fog 57 14 57 14 100 100 N N/A 30.09 1019 1 2 N/A
5:53 am 05:53 Partly Cloudy with Mist and Fog 58 14.4 58 14.4 100 100 N N/A 30.08 1019 1 2 N/A
5:55 am 05:55 Mostly Cloudy with Mist and Fog 59 15 59 15 100 100 N N/A 30.09 1019 1 1 N/A
6:23 am 06:23 Mostly Cloudy with Fog 58 14.4 58 14.4 100 100 N N/A 30.09 1019 0 0 N/A
6:36 am 06:36 Mostly Cloudy with Fog 58 14.4 58 14.4 100 100 N N/A 30.12 1020 1 1 N/A
6:42 am 06:42 Mostly Cloudy with Mist and Fog 58 14.4 58 14.4 100 100 N N/A 30.12 1020 1 2 N/A
6:53 am 06:53 Sunny with Patchy Fog 59 15 59 15 100 100 N N/A 30.10 1019 7 11 N/A
7:53 am 07:53 Sunny 60 15.6 60 15.6 100 100 N N/A 30.12 1020 10 16 N/A
8:53 am 08:53 Sunny 67 19.4 63 17.2 87 87 N N/A 30.14 1021 10 16 N/A
9:53 am 09:53 Sunny 70 21.1 63 17.2 79 79 VRB 3 6 30.15 1021 10 16 N/A
10:53 am 10:53 Sunny 74 23.3 65 18.3 74 74 ENE 5 7 30.15 1021 10 16 N/A
11:53 am 11:53 Partly Cloudy 75 23.9 64 17.8 69 69 ENE 9 15 30.15 1021 10 16 N/A
12:53 pm 12:53 Partly Cloudy 76 24.4 63 17.2 64 64 ENE 8 13 30.15 1021 10 16 N/A
1:53 pm 13:53 Mostly Cloudy 79 26.1 63 17.2 58 58 E 13 20 30.14 1021 10 16 N/A
2:53 pm 14:53 Partly Cloudy 79 26.1 60 15.6 52 52 ENE 6 9 30.14 1021 10 16 N/A
3:53 pm 15:53 Partly Cloudy 80 26.7 59 15 49 49 NNE 7 11 30.13 1020 10 16 N/A
4:53 pm 16:53 Mostly Sunny 80 26.7 58 14.4 47 47 ENE 6 9 30.12 1020 10 16 N/A
5:53 pm 17:53 Mostly Sunny 79 26.1 56 13.3 45 45 NE 6 9 30.12 1020 10 16 N/A
6:53 pm 18:53 Mostly Sunny 78 25.6 56 13.3 47 47 ENE 5 7 30.12 1020 10 16 N/A
7:53 pm 19:53 Sunny 75 23.9 59 15 58 58 ENE 3 6 30.13 1020 10 16 N/A
8:53 pm 20:53 Clear 68 20 60 15.6 76 76 N N/A 30.14 1021 10 16 N/A
9:53 pm 21:53 Clear 62 16.7 60 15.6 93 93 N N/A 30.16 1021 10 16 N/A
10:53 pm 22:53 Clear 61 16.1 60 15.6 97 97 N N/A 30.17 1022 10 16 N/A
11:53 pm 23:53 Clear 59 15 59 15 100 100 N N/A 30.17 1022 10 16 N/A

Powered by AerisWeather